Iridium Next SV179

operational
NORAD ID: 56730 Int'l Des: 2023-068 Owner: IRIDS Country: US Constellation: Iridium NEXT
LEOCIRCULARPOLAR

Iridium Next SV179について

説明を読み込み中...

リアルタイム位置

3D地球を読み込み中...

次回通過

高度履歴

Altitude vs Time

uPlot chart will show altitude changes over time

軌道要素

1 56730U 23068W 25303.93405135 .00000902 00000-0 11528-3 0 9994
2 56730 86.6759 129.4803 0001594 88.4203 271.7201 14.80238455132450
Epoch: Oct 30, 2025 • Age: 15 hours

現在のステータス

高度 638.0 km
速度 7.55 km/s
衛星直下点 60.46°N, 59.91°E
打ち上げ日 May 20, 2023
運用期間 2.4 years
タイプ communications

技術仕様

分類 Payload
質量 860.00 kg
乾燥質量 700.00 kg
総質量 860.00 kg
長さ 3.10 m
直径 1.50 m
スパン 9.40 m
形状 Half Hex Prism+2 pan
製造者 NGISGA
バスタイプ EliteBus
フェーズステータス In Orbit
所有者/国 IRIDS/US

大規模コンステレーション

Loading constellations...